User: anonymous   Login
Location: Bílinka
(49.3579°N, 14.3767°E)
Time: 02:35:52
(UTC+00:00)
Language:

Cosmos 1975 Rocket - Orbit

View from above orbital plane
View from above orbital plane
View from above satellite
View from above satellite

Ground track
Ground track

The orbit data is extracted from the following two-line orbital elements,

1 19574U 88093B   24206.60298601  .00000935  00000-0  10772-3 0  9997
2 19574  82.5294 238.3420 0020713 195.3553 321.1008 14.84534426913003
Epoch (UTC): 24 July 2024 14:28:17
Eccentricity: 0.0020713
inclination: 82.5294°
perigee height: 600 km
apogee height: 629 km
right ascension of ascending node: 238.3420°
argument of perigee: 195.3553°
revolutions per day: 14.84534426
mean anomaly at epoch: 321.1008°
orbit number at epoch: 91300

The dashed part of the orbit path shows where the satellite is in the earth's shadow,  

DLR